Location: Norwich
(42.5310°N, 75.5240°W)
Time: 14:42:19
(UTC-04:00)

Envisat - Visible Passes

Search period start: 20 October 2019 00:00
Search period end: 30 October 2019 00:00
Orbit: 764 x 766 km, 98.1° (Epoch: 20 October)

Date Brightness Start Highest point End Pass type
(mag) Time Alt. Az. Time Alt. Az. Time Alt. Az.
20 Oct 5.5 20:11:52 10° SW 20:15:47 22° W 20:19:43 10° NW visible
21 Oct 6.3 06:41:25 10° ENE 06:44:09 14° E 06:46:54 10° ESE visible
21 Oct 4.0 19:33:53 10° S 19:38:47 48° W 19:43:43 10° NNW visible
22 Oct 2.9 18:56:55 10° SSE 19:01:58 77° ENE 19:07:04 10° N visible
22 Oct 6.1 20:39:26 10° WSW 20:41:34 13° W 20:43:43 10° WNW visible
23 Oct 5.1 20:00:06 10° SSW 20:04:25 28° W 20:08:46 10° NW visible
24 Oct 6.6 06:31:17 10° ENE 06:32:45 11° E 06:34:12 10° ESE visible
24 Oct 3.5 19:22:28 10° S 19:27:29 62° W 19:32:31 10° NNW visible
25 Oct 3.0 18:45:45 10° SSE 18:50:44 61° ENE 18:55:46 10° N visible
25 Oct 5.9 20:27:04 10° SW 20:30:10 16° W 20:33:17 10° NW visible
26 Oct 6.0 06:54:51 10° NE 06:58:33 20° E 07:02:15 10° SE visible
26 Oct 4.6 19:48:28 10° SSW 19:53:05 35° W 19:57:44 10° NNW visible
27 Oct 3.1 19:11:08 10° S 19:16:12 78° WSW 19:21:19 10° NNW visible
28 Oct 3.2 18:34:39 10° SE 18:39:31 48° ENE 18:44:24 10° N visible
28 Oct 5.6 20:15:04 10° SW 20:18:47 20° W 20:22:32 10° NW visible
29 Oct 6.1 06:44:06 10° NE 06:47:11 16° E 06:50:14 10° SE visible
29 Oct 4.2 19:36:56 10° S 19:41:46 44° W 19:46:38 10° NNW visible
